STARLINK-1564 (46058 NORAD) Tracking and Keplerian Element Data

This shows tracking and keplerian element data for the satellite.

Feedback or suggestion? Click here.




ElementValue
Catalog46058
NameSTARLINK-1564
Epoch Orbit1842
Epoch Day336.12404533
Epoch Year2020
RAAN116.3073
Inclination53.0099
Eccentricity0.0003116
Argument of Perigee81.0497
Mean Anonmoly279.0844
Mean Motion15.06365389
Decay Rate6.196E-05
L11 46058U 20055AH 20336.12404533 .00006196 00000-0 43490-3 0 9996
L22 46058 53.0099 116.3073 0003116 81.0497 279.0844 15.06365389 18427

Live tracking and technical data element details for STARLINK-1564 (NORAD 46058). STARLINK-1564 can be tracked NOW for your location showing map with azimuth and elevation plus other details from your city location.

Track the satellite on the map from your city or location and see movement details for azimuth, elevation, latitude, longitude, range, height, and movement on the map or in text.







IsCatalogInMostPopularTable: catalog: 46058, numindb: 27
Update: records affected: 1



GetName: 46058 STARLINK-1564

Hit Count: updated at: Tue, 01 Dec 2020 21:04:41 GMT